Regional Weather Roundup
Issued by NWS

Home | Current Version | Previous Version | Text Only | Print | Product List | Glossary Off
Versions: 1 2 3 4 5 6 7 8 9 10 11 12 13 14 15 16 17 18 19 20 21 22 23 24 25 26 27 28 29 30 31 32 33 34 35 36 37 38 39 40 41 42 43 44 45 46 47 48 49 50

000
ASUS43 KDTX 231401
RWRMI
MICHIGAN HOURLY REGIONAL WEATHER ROUNDUP
NATIONAL WEATHER SERVICE DETROIT/PONTIAC MI
1000 AM EDT FRI JUN 23 2017

NOTE: "FAIR" INDICATES FEW OR NO CLOUDS BELOW 12,000 FEET WITH NO
SIGNIFICANT WEATHER AND/OR OBSTRUCTION TO VISIBILITY.

MIZ047>049-052>055-059>063-066>070-074>076-081>083-231500-
SOUTHEAST LOWER MICHIGAN

CITY           SKY/WX    TMP DP  RH WIND       PRES   REMARKS
ADRIAN         LGT RAIN  72  71  97 W14       29.66R
ALMA           CLOUDY    67  67  99 SW5       29.61F
ANN ARBOR      LGT RAIN  72  72 100 SW5       29.64R FOG
BAD AXE        LGT RAIN  67  66  97 S6        29.61S
CARO           LGT RAIN  66  66 100 SE8       29.58F
DETROIT CITY   CLOUDY    73  71  93 W9        29.62S
DETROIT        CLOUDY    73  72  96 SW14      29.63R
FLINT          CLOUDY    67  66  97 SE12      29.60F
GROSSE ILE     CLOUDY    73  71  93 W6        29.62S
HILLSDALE      CLOUDY    70  68  94 CALM      29.66F
HOWELL         DRIZZLE   67  65  91 E7        29.62F

CITY           SKY/WX    TMP DP  RH WIND       PRES   REMARKS
JACKSON        CLOUDY    73  68  84 N7        29.64S
LAMBERTVILLE   RAIN      72  70  95 SW7       29.64R
LANSING        CLOUDY    70  65  84 SW6       29.64R
LAPEER         HVY RAIN  67  66  96 S3        29.65R
MASON          CLOUDY    68  67  95 SE5       29.62F
MONROE         LGT RAIN  73  72  95 W9        29.62S
PONTIAC        CLOUDY    67  67 100 N21G29    29.62R FOG
PORT HOPE        N/A     67  65  93 CALM      29.58S
PORT HURON     DRIZZLE   66  64  94 E6        29.63F
TRI CITIES     CLOUDY    68  67  96 SW6       29.61S
MIDLAND        DRIZZLE   67  66  95 SW5       29.61S
TROY           CLOUDY    73  70  91 SW7       29.63S
SAGINAW HB     CLOUDY    68  63  83 S3        29.59S
$$
MIZ043>046-050>051-056>058-064>065-071>073-077>080-231500-
SOUTHWEST LOWER MICHIGAN

CITY           SKY/WX    TMP DP  RH WIND       PRES   REMARKS
BATTLE CREEK   LGT RAIN  71  69  93 CALM      29.63F
BENTON HARBOR  CLOUDY    66  63  90 VRB7      29.68R
BIG RAPIDS     CLOUDY    66  63  90 NW6       29.63R
COLDWATER      CLOUDY    73  71  95 W3        29.65F
FREMONT        CLOUDY    66  65  96 NW8       29.64S
HOLLAND        CLOUDY    66  64  93 NW8       29.67R
GRAND RAPIDS   CLOUDY    69  66  90 NW7       29.64R
IONIA          CLOUDY    69  67  94 W3        29.62S
KALAMAZOO      LGT RAIN  70  66  87 VRB3      29.61F
LUDINGTON      CLOUDY    65  64  96 N3        29.62F
MARSHALL       CLOUDY    73  71  94 CALM      29.65R
MOUNT PLEASANT CLOUDY    67  66  95 CALM      29.60F
MUSKEGON       CLOUDY    69  64  84 W5        29.65S
SOUTH HAVEN    CLOUDY    66  65  96 N9G16     29.67R
$$
MIZ016>042-231500-
NORTHERN LOWER MICHIGAN

CITY           SKY/WX    TMP DP  RH WIND       PRES   REMARKS
ALPENA         CLOUDY    68  66  93 VRB3      29.59S
BEAVER ISLAND  FOG       61  61  99 W3        29.60R VSB 1/2
BELLAIRE       CLOUDY    66  63  90 CALM      29.61R
CADILLAC       CLOUDY    67  62  83 W6        29.63S
CHARLEVOIX     FOG       63  63 100 E5        29.62F VSB 1/4
FRANKFORT      PTSUNNY   67  61  81 W7        29.62R
GAYLORD        CLOUDY    66  60  81 VRB5      29.61F
GRAYLING       CLOUDY    66  64  91 W7        29.62R
HARBOR SPRINGS FOG       60  60 100 CALM      29.60S VSB<1/4
HOUGHTON LAKE  CLOUDY    67  63  87 NW7       29.62S
MANISTEE       CLOUDY    67  63  87 NW3       29.62F
OSCODA         DRIZZLE   68  67  95 SW3       29.58S
PELLSTON       PTSUNNY   66  62  87 NW5       29.59S
ROGERS CITY    CLOUDY    64  63  97 N3        29.59S
TRAVERSE CITY  CLOUDY    67  63  87 CALM      29.59F
$$
MIZ007>008-015-231500-
EASTERN UPPER MICHIGAN

CITY           SKY/WX    TMP DP  RH WIND       PRES   REMARKS
KINROSS        MOSUNNY   66  60  81 NW6       29.58S
MACKINAC ISLAN FOG       59  59 100 SW3       29.58S VSB<1/4
NEWBERRY       PTSUNNY   66  65  97 W5        29.59S
S. S. MARIE    MOSUNNY   68  61  78 W6        29.56F
MUNISING         N/A     70  55  59 CALM      29.59S
$$
MIZ004>006-011>014-085-231500-
CENTRAL UPPER MICHIGAN

CITY           SKY/WX    TMP DP  RH WIND       PRES   REMARKS
MANISTIQUE     CLOUDY    65  61  86 W7        29.60S
ESCANABA       MOSUNNY   67  58  72 W6        29.62R
MENOMINEE      MOSUNNY   69  60  73 VRB3      29.65R
SAWYER-GWINN   SUNNY     66  54  63 W8        29.62S
$$
MIZ001>003-009>011-084-231500-
WESTERN UPPER MICHIGAN

CITY           SKY/WX    TMP DP  RH WIND       PRES   REMARKS
IRON MOUNTAIN  MOSUNNY   68  55  63 W6        29.62F
HOUGHTON       MOSUNNY   65  48  54 W20       29.59R
COPPER HARBOR    N/A     61  52  72 N13       29.55S
IRONWOOD       SUNNY     63  49  60 W14       29.66R
$$

ABBREVIATIONS USED IN REMARKS
   TC - TEMPERATURE IN CELSIUS
  WCI - WIND CHILL INDEX
   HX - HEAT INDEX
  VSB - VISIBILITY





USA.gov is the U.S. government's official web portal to all federal, state and local government web resources and services.